User: anonymous   Login
Location: Unspecified
(0.0000°N, 0.0000°E)
Time: 18:56:35
(UTC+00:00)
Language:

EGG - Orbit

View from above orbital plane
View from above orbital plane
View from above satellite
View from above satellite

Ground track
Ground track

The orbit data is extracted from the following two-line orbital elements,

1 41933U 98067KV  17084.95137234 +.00018221 +00000-0 +25504-3 0  9997
2 41933 051.6424 092.4373 0005785 333.3117 026.7551 15.56850993010567
Epoch (UTC): 25 March 2017 22:49:58
Eccentricity: 0.0005785
inclination: 51.6424°
perigee height: 393 km
apogee height: 401 km
right ascension of ascending node: 92.4373°
argument of perigee: 333.3117°
revolutions per day: 15.56850993
mean anomaly at epoch: 26.7551°
orbit number at epoch: 1056

The dashed part of the orbit path shows where the satellite is in the earth's shadow,  

DLR